Naples, Italy

7:32 AM CET on February 28, 2017 (GMT +0100)
Naples

Weather History for LIRN - June, 2013

Change the Weather History Date:

Tuesday, June 25, 2013

  Actual Average Record
Temperature  
Mean Temperature 72 °F -  
Max Temperature 78 °F 84 °F 95 °F (2001)
Min Temperature 66 °F 63 °F 60 °F (2010)
Cooling Degree Days 7    
Growing Degree Days 22 (Base 50)    
Moisture  
Dew Point 58 °F    
Average Humidity 61    
Maximum Humidity 83    
Minimum Humidity 39    
Precipitation  
Precipitation 0.00 in 0.03 in - ()
Sea Level Pressure  
Sea Level Pressure 29.99 in    
Wind  
Wind Speed 5 mph ()    
Max Wind Speed 10 mph    
Max Gust Speed -    
Visibility 6.2 miles    
Events      
Averages and records for this station are not official NWS values.
T = Trace of Precipitation, MM = Missing Value Source: Averaged Metar Reports

Daily Weather History Graph

Daily Weather History Graph

Search for Another Location

Airport or City:

Trip Planner

Search our weather history database for the weather conditions in past years. The results will help you decide how hot, cold, wet, or windy it might be!

Date:

Astronomy

Jun. 25, 2013 Rise Set
Actual Time 5:32 AM CEST 8:38 PM CEST
Civil Twilight 4:58 AM CEST 9:11 PM CEST
Nautical Twilight 4:16 AM CEST 9:54 PM CEST
Astronomical Twilight 3:25 AM CEST 10:45 PM CEST
Moon 10:10 PM CEST (6/25) 7:52 AM CEST (6/25)
Length of Visible Light 16h 13m
Length of Day
15h 06m
Waning Gibbous, 94% of the Moon is Illuminated
Jun 25
Waning Gibbous
Jun 30
Last Quarter
Jul 8
New
Jul 16
First Quarter
Jul 22
Full

Hourly Weather History & Observations

Time (CEST) Temp. Dew Point Humidity Pressure Visibility Wind Dir Wind Speed Gust Speed Precip Events Conditions
12:20 AM 66.2 °F 59.0 °F 78% 29.98 in 6.2 mi WSW 8.1 mph - N/A   Partly Cloudy
12:50 AM 66.2 °F 59.0 °F 78% 29.98 in 6.2 mi WSW 4.6 mph - N/A   Scattered Clouds
1:20 AM 68.0 °F 60.8 °F 78% 29.95 in 6.2 mi SW 4.6 mph - N/A   Scattered Clouds
1:50 AM 68.0 °F 60.8 °F 78% 29.95 in 6.2 mi SW 5.8 mph - N/A   Partly Cloudy
2:20 AM 68.0 °F 60.8 °F 78% 29.95 in 6.2 mi SSW 3.5 mph - N/A   Partly Cloudy
2:50 AM 68.0 °F 60.8 °F 78% 29.95 in 6.2 mi SSW 3.5 mph - N/A   Partly Cloudy
3:20 AM 68.0 °F 60.8 °F 78% 29.95 in 6.2 mi SSW 3.5 mph - N/A   Partly Cloudy
4:20 AM 68.0 °F 60.8 °F 78% 29.95 in 6.2 mi SW 3.5 mph - N/A   Partly Cloudy
4:50 AM 66.2 °F 60.8 °F 83% 29.95 in 6.2 mi Variable 2.3 mph - N/A   Partly Cloudy
5:20 AM 68.0 °F 60.8 °F 78% 29.95 in 6.2 mi Variable 2.3 mph - N/A   Scattered Clouds
5:50 AM 66.2 °F 59.0 °F 78% 29.95 in 6.2 mi WSW 4.6 mph - N/A   Partly Cloudy
6:20 AM 68.0 °F 60.8 °F 78% 29.95 in 6.2 mi Variable 2.3 mph - N/A   Partly Cloudy
6:50 AM 69.8 °F 60.8 °F 73% 29.95 in 6.2 mi Variable 2.3 mph - N/A   Partly Cloudy
7:20 AM 69.8 °F 60.8 °F 73% 29.98 in 6.2 mi Variable 2.3 mph - N/A   Partly Cloudy
7:50 AM 69.8 °F 59.0 °F 68% 29.98 in 6.2 mi WNW 4.6 mph - N/A   Partly Cloudy
8:20 AM 71.6 °F 55.4 °F 57% 29.98 in 6.2 mi West 5.8 mph - N/A   Partly Cloudy
8:50 AM 73.4 °F 57.2 °F 57% 29.98 in 6.2 mi NNW 4.6 mph - N/A   Partly Cloudy
9:20 AM 75.2 °F 57.2 °F 53% 29.98 in 6.2 mi Variable 3.5 mph - N/A   Scattered Clouds
9:50 AM 73.4 °F 59.0 °F 61% 29.98 in 6.2 mi SSW 4.6 mph - N/A   Scattered Clouds
10:20 AM 73.4 °F 57.2 °F 57% 29.98 in 6.2 mi South 3.5 mph - N/A   Scattered Clouds
10:50 AM 73.4 °F 57.2 °F 57% 29.98 in 6.2 mi South 5.8 mph - N/A   Scattered Clouds
11:20 AM 75.2 °F 57.2 °F 53% 29.98 in 6.2 mi South 6.9 mph - N/A   Scattered Clouds
11:50 AM 75.2 °F 55.4 °F 50% 30.01 in 6.2 mi South 8.1 mph - N/A   Scattered Clouds
12:20 PM 77.0 °F 59.0 °F 54% 30.01 in 6.2 mi SSW 6.9 mph - N/A   Scattered Clouds
12:50 PM 75.2 °F 59.0 °F 57% 30.01 in 6.2 mi South 8.1 mph - N/A   Scattered Clouds
1:20 PM 77.0 °F 55.4 °F 47% 30.01 in 6.2 mi South 8.1 mph - N/A   Scattered Clouds
1:50 PM 77.0 °F 55.4 °F 47% 30.01 in 6.2 mi SSW 9.2 mph - N/A   Scattered Clouds
2:20 PM 77.0 °F 53.6 °F 44% 30.01 in 6.2 mi South 9.2 mph - N/A   Partly Cloudy
2:50 PM 78.8 °F 53.6 °F 42% 30.01 in 6.2 mi South 9.2 mph - N/A   Partly Cloudy
3:20 PM 78.8 °F 51.8 °F 39% 30.01 in 6.2 mi South 9.2 mph - N/A   Partly Cloudy
3:50 PM 78.8 °F 53.6 °F 42% 30.01 in 6.2 mi South 10.4 mph - N/A   Partly Cloudy
4:20 PM 78.8 °F 51.8 °F 39% 30.01 in 6.2 mi South 6.9 mph - N/A   Partly Cloudy
4:50 PM 78.8 °F 53.6 °F 42% 30.01 in 6.2 mi South 8.1 mph - N/A   Partly Cloudy
5:20 PM 78.8 °F 53.6 °F 42% 30.01 in 6.2 mi SSW 5.8 mph - N/A   Partly Cloudy
5:50 PM 77.0 °F 55.4 °F 47% 30.01 in 6.2 mi SSW 8.1 mph - N/A   Partly Cloudy
6:20 PM 77.0 °F 53.6 °F 44% 30.01 in - South 8.1 mph - N/A   Clear
6:50 PM 75.2 °F 55.4 °F 50% 30.01 in - South 6.9 mph - N/A   Clear
7:20 PM 75.2 °F 55.4 °F 50% 30.01 in - South 5.8 mph - N/A   Clear
7:50 PM 75.2 °F 57.2 °F 53% 30.01 in - South 5.8 mph - N/A   Clear
8:20 PM 73.4 °F 59.0 °F 61% 30.01 in - South 3.5 mph - N/A   Clear
8:50 PM 71.6 °F 60.8 °F 69% 30.01 in - South 3.5 mph - N/A   Clear
9:20 PM 71.6 °F 60.8 °F 69% 30.01 in - SSE 3.5 mph - N/A   Clear
9:50 PM 71.6 °F 59.0 °F 64% 30.04 in - Variable 2.3 mph - N/A   Clear
10:20 PM 71.6 °F 60.8 °F 69% 30.04 in - South 2.3 mph - N/A   Clear
10:50 PM 71.6 °F 59.0 °F 64% 30.04 in - South 1.2 mph - N/A   Clear
11:20 PM 69.8 °F 59.0 °F 68% 30.04 in - Calm Calm - N/A   Clear
11:50 PM 69.8 °F 59.0 °F 68% 30.04 in - Variable 1.2 mph - N/A   Clear